Location: Il Ritiro
(43.4167°N, 13.1333°E)
Time: 15:29:50
(UTC+00:00)

GEOS 3 Rocket - Pass Details

Date: 05 July 2020
Orbit: 771 x 848 km, 115.0° (Epoch: 10 August)

Event Time Altitude Azimuth Distance (km) Brightness Sun altitude
Rises 19:18:08 0° 44° (NE) 3,414 6.8 -4.9°
Reaches altitude 10° 19:20:41 10° 54° (NE) 2,477 6.0 -5.2°
Maximum altitude 19:25:35 34° 118° (ESE) 1,356 4.3 -5.9°
Drops below altitude 10° 19:30:25 10° 183° (S) 2,455 5.8 -6.6°
Sets 19:32:56 0° 192° (SSW) 3,379 6.6 -7.0°
